Weather History for Columbia, MO

Change the Weather History Date:

Saturday, June 22, 2013

  Actual Average Record
Temperature  
Mean Temperature 82 °F 75 °F  
Max Temperature 90 °F 85 °F 100 °F (1988)
Min Temperature 73 °F 65 °F 43 °F (1902)
Degree Days  
Heating Degree Days 0 0  
Month to date heating degree days 6 9  
Since 1 June heating degree days 6 9  
Since 1 July heating degree days 4902 5021  
Cooling Degree Days 17 10  
Month to date cooling degree days 161 161  
Year to date cooling degree days 295 264  
Since 1 June cooling degree days 161 161  
Growing Degree Days 32 (Base 50)    
Moisture  
Dew Point 71 °F    
Average Humidity 72    
Maximum Humidity 87    
Minimum Humidity 56    
Precipitation  
Precipitation 0.00 in 0.15 in 1.72 in (1969)
Month to date precipitation 1.45 3.30  
Year to date precipitation 28.16 19.85  
Snow  
Snow 0.00 in 0.00 in 0.00 in (2013)
Month to date snowfall 0.0 0.0  
Since 1 June snowfall 0.0 0.0  
Since 1 July snowfall 35.0 18.0  
Snow Depth 0.00 in    
Sea Level Pressure  
Sea Level Pressure 30.00 in    
Wind  
Wind Speed 11 mph (SSE)    
Max Wind Speed 18 mph    
Max Gust Speed 24 mph    
Visibility 10 miles    
Events      
T = Trace of Precipitation, MM = Missing Value Source: NWS Daily Summary

Daily Weather History Graph

Daily Weather History Graph

Search for Another Location

Airport:

Trip Planner

Search our weather history database for the weather conditions in past years. The results will help you decide how hot, cold, wet, or windy it might be!

Date:

Astronomy

Jun. 22, 2013 Rise Set
Actual Time 5:44 AM CDT 8:37 PM CDT
Civil Twilight 5:12 AM CDT 9:09 PM CDT
Nautical Twilight 4:31 AM CDT 9:50 PM CDT
Astronomical Twilight 3:45 AM CDT 10:36 PM CDT
Moon 7:53 PM CDT (6/22) 4:56 AM CDT (6/22)
Length of Visible Light 15h 57m
Length of Day
14h 53m
Waxing Gibbous, 99% of the Moon is Illuminated
Jun 22
Waxing Gibbous
Jun 23
Full
Jun 29
Last Quarter
Jul 8
New
Jul 15
First Quarter

Hourly Weather History & Observations

Time (CDT) Temp. Heat Index Dew Point Humidity Pressure Visibility Wind Dir Wind Speed Gust Speed Precip Events Conditions
12:54 AM 79.0 °F - 71.1 °F 77% 30.00 in 10.0 mi SSE 8.1 mph - N/A   Clear
1:54 AM 77.0 °F - 71.1 °F 82% 30.00 in 10.0 mi SSE 9.2 mph - N/A   Clear
2:54 AM 75.9 °F - 71.1 °F 85% 29.99 in 10.0 mi SSE 9.2 mph - N/A   Clear
3:54 AM 75.0 °F - 70.0 °F 84% 29.98 in 10.0 mi SSE 8.1 mph - N/A   Clear
4:54 AM 73.9 °F - 70.0 °F 87% 30.01 in 10.0 mi SSE 8.1 mph - N/A   Clear
5:54 AM 73.9 °F - 70.0 °F 87% 30.02 in 10.0 mi SSE 8.1 mph - N/A   Clear
6:54 AM 73.9 °F - 70.0 °F 87% 30.03 in 10.0 mi South 8.1 mph - N/A   Clear
7:54 AM 75.9 °F - 71.1 °F 85% 30.03 in 10.0 mi SSE 10.4 mph - N/A   Clear
8:54 AM 80.1 °F 83.8 °F 72.0 °F 76% 30.04 in 10.0 mi South 10.4 mph - N/A   Clear
9:54 AM 82.9 °F 88.0 °F 72.0 °F 69% 30.05 in 10.0 mi South 10.4 mph - N/A   Clear
10:54 AM 84.0 °F 89.6 °F 72.0 °F 67% 30.05 in 10.0 mi South 9.2 mph - N/A   Clear
11:54 AM 87.1 °F 94.5 °F 73.0 °F 63% 30.04 in 10.0 mi South 11.5 mph - N/A   Clear
12:54 PM 88.0 °F 95.6 °F 73.0 °F 61% 30.04 in 10.0 mi South 11.5 mph - N/A   Clear
1:54 PM 87.1 °F 93.6 °F 72.0 °F 61% 30.03 in 10.0 mi South 11.5 mph - N/A   Clear
2:54 PM 90.0 °F 97.9 °F 73.0 °F 57% 29.98 in 10.0 mi South 13.8 mph - N/A   Clear
3:54 PM 89.1 °F 96.0 °F 72.0 °F 57% 29.95 in 10.0 mi SSW 11.5 mph - N/A   Clear
4:54 PM 89.1 °F 96.0 °F 72.0 °F 57% 29.96 in 10.0 mi South 11.5 mph - N/A   Partly Cloudy
5:54 PM 89.1 °F 95.0 °F 71.1 °F 55% 29.94 in 10.0 mi South 12.7 mph - N/A   Clear
6:54 PM 84.9 °F 90.7 °F 72.0 °F 65% 29.93 in 10.0 mi SSE 11.5 mph - N/A   Clear
7:54 PM 82.0 °F 86.3 °F 71.1 °F 69% 29.96 in 10.0 mi SSE 15.0 mph 20.7 mph N/A   Clear
8:54 PM 79.0 °F - 68.0 °F 69% 29.97 in 10.0 mi SE 13.8 mph 24.2 mph N/A   Clear
9:54 PM 77.0 °F - 66.9 °F 71% 29.99 in 10.0 mi SSE 12.7 mph - N/A   Clear
10:54 PM 75.0 °F - 66.0 °F 73% 30.01 in 10.0 mi SSE 15.0 mph 20.7 mph N/A   Clear
11:54 PM 73.9 °F - 66.0 °F 76% 29.99 in 10.0 mi South 11.5 mph - N/A   Clear